[[{"header":{"parameterUnit":"m.s-1","parameterCategory":1,"la1":30.2991,"la2":30.254,"lo1":-89.0895,"lo2":-89.0444,"dy":0.0017,"dx":0.0017,"nx":28,"ny":28,"refTime":"2024-07-30T09:00:00:Z","depth":0,"parameterNumber":2,"parameterNumberName":"U-component_of_WINDS"},"data":[0,0,0,0,0,0,0,0,0,0,0,0,0,0,0,0,0,0,0,0,0,0,0,0,0,0,0,0,0,0,0,0,0,0,0,0,0,0,0,0,0,0,0,0,0,0,0,0,0,0,0,0,0,0,0,0,0,0,1.0914,1.0915,0,1.1039,1.104,1.1041,1.1085,1.1084,1.1084,1.1083,1.1213,1.1216,1.122,0,0,0,0,0,0,0,0,0,0,0,0,0,1.0713,1.0717,1.0914,1.0915,1.0917,1.1038,1.104,1.1042,1.1085,1.1084,1.1084,1.1083,1.1211,1.1216,1.1221,0,0,0,0,0,0,0,0,0,0,0,0,0,1.0815,1.0718,1.0914,1.0953,1.0958,1.1038,1.104,1.1042,1.1085,1.1084,1.1084,1.1083,1.121,1.1216,1.1221,1.1272,0,0,1.1239,1.1242,0,0,0,0,0,0,0,0,1.0809,1.0823,1.0946,1.0951,1.0956,1.1045,1.1017,1.1119,1.1085,1.1037,1.1083,1.1083,1.1158,1.1168,1.1193,1.1278,1.1283,1.124,1.1243,1.1246,1.1247,0,0,0,0,0,0,0,1.0802,1.0818,1.0963,1.0948,1.0954,1.0965,1.0978,1.1036,1.11,1.1041,1.1044,1.1058,1.116,1.1187,1.1196,1.1285,1.1239,1.1245,1.1248,1.125,1.1415,1.1416,0,0,0,0,0,0,1.0789,1.0811,1.0959,1.0967,1.0879,1.0969,1.0984,1.1017,1.1099,1.1111,1.1059,1.106,1.1177,1.1189,1.1201,1.1264,1.1246,1.1251,1.1254,1.1415,1.1416,1.1417,0,0,0,0,0,0,1.0784,1.0801,1.0954,1.089,1.091,1.0973,1.101,1.102,1.1047,1.1113,1.1124,1.1075,1.1177,1.1193,1.1253,1.1269,1.1254,1.1259,1.1414,1.1415,1.1416,1.1391,0,0,0,0,0,0,1.0778,1.08,1.0819,1.089,1.0914,1.1004,1.1011,1.1023,1.1057,1.1059,1.1131,1.1142,1.1178,1.1244,1.1259,1.1277,1.1264,1.1412,1.1414,1.1416,1.1391,1.1391,1.1392,0,0,0,0,0,1.0771,1.0808,1.082,1.0838,1.094,1.1005,1.1019,1.1059,1.1058,1.1078,1.112,1.1139,1.1265,1.125,1.1267,1.1287,1.1412,1.1414,1.1416,1.1391,1.1391,1.1392,0,0,0,0,0,0,1.0739,1.0818,1.0833,1.0894,1.0942,1.1012,1.104,1.1059,1.1109,1.111,1.1158,1.1174,1.123,1.1265,1.1247,1.1339,1.1339,1.1345,1.1314,1.1316,1.1316,1.1307,1.1268,0,0,0,0,0,1.0739,1.0785,1.0852,1.09,1.0923,1.0977,1.1007,1.1034,1.1086,1.1107,1.1154,1.1204,1.1254,1.1287,1.1337,1.1396,1.1411,1.1418,1.1418,1.1418,1.1423,1.1454,1.1458,1.1423,1.1423,1.1423,0,0,1.0739,1.0788,1.0815,1.0894,1.0935,1.0982,1.0994,1.1043,1.1078,1.1115,1.1174,1.121,1.1269,1.1328,1.1357,1.1359,1.1435,1.1421,1.142,1.1425,1.1457,1.146,1.1463,1.1424,1.1424,1.1424,0,0,1.0764,1.0806,1.085,1.089,1.0951,1.0986,1.0996,1.1063,1.1088,1.1148,1.1176,1.1218,1.1304,1.1345,1.1377,1.1414,1.1434,1.1429,1.1433,1.1463,1.1466,1.1468,1.1481,1.1485,1.1433,1.1433,1.1433,0,1.0757,1.0829,1.087,1.0917,1.0951,1.0985,1.1029,1.1066,1.114,1.1162,1.1163,1.1271,1.1314,1.1382,1.139,1.1416,1.1428,1.1422,1.1462,1.1465,1.1468,1.148,1.1485,1.1432,1.1432,1.1432,1.1433,0,1.0817,1.0865,1.0893,1.0963,1.1,1.1045,1.1093,1.1125,1.1148,1.1183,1.1243,1.1294,1.1355,1.1373,1.1397,1.1444,1.1443,1.1452,1.1454,1.147,1.1482,1.1487,1.1431,1.1431,1.1432,1.1432,0,0,1.0826,1.0917,1.0926,1.0957,1.1026,1.1065,1.1111,1.1169,1.1195,1.1245,1.1285,1.1356,1.1364,1.14,1.1428,1.1455,1.1479,1.1461,1.1463,1.1462,1.1534,1.1526,1.1531,1.1492,1.1493,1.1494,1.1528,0,1.086,1.0944,1.0981,1.1048,1.1093,1.1125,1.1165,1.1211,1.1244,1.1287,1.1324,1.1373,1.1381,1.1402,1.143,1.147,1.1494,1.1468,1.1529,1.1531,1.1513,1.1538,1.1531,1.1561,1.1534,1.1535,1.1535,0,1.091,1.0959,1.103,1.1091,1.1112,1.1147,1.1203,1.1243,1.1296,1.1318,1.1357,1.1383,1.1432,1.1429,1.1497,1.1478,1.1505,1.1529,1.1531,1.1538,1.1534,1.1546,1.1572,1.1576,1.1543,1.1543,1.1542,0,1.0909,1.0992,1.1045,1.1071,1.1144,1.1168,1.12,1.1252,1.1284,1.1332,1.1353,1.1407,1.1436,1.1476,1.1516,1.1511,1.158,1.1581,1.1599,1.1598,1.1613,1.1612,1.1643,1.163,1.163,1.163,1.163,0,1.0942,1.0984,1.1045,1.1078,1.1125,1.1168,1.1214,1.1248,1.1293,1.1332,1.1363,1.1399,1.1449,1.1492,1.1523,1.1574,1.1587,1.1606,1.1614,1.1603,1.1601,1.1622,1.1621,1.1631,1.1631,1.1631,1.1631,0,1.0949,1.0992,1.1052,1.1115,1.1132,1.1165,1.1219,1.1252,1.1285,1.1334,1.1348,1.1402,1.1453,1.1496,1.1564,1.1585,1.1637,1.1647,1.1619,1.1623,1.1639,1.1637,1.1686,1.1694,1.1675,1.1675,1.1675,0,1.0968,1.1001,1.1068,1.1096,1.1127,1.1172,1.1204,1.1247,1.1279,1.134,1.1365,1.1418,1.1463,1.1543,1.1587,1.1639,1.165,1.1663,1.1658,1.1645,1.1649,1.1647,1.165,1.1663,1.1663,1.1663,1.1663,0,1.0996,1.1015,1.106,1.1112,1.115,1.1193,1.1237,1.1258,1.1308,1.1343,1.1395,1.143,1.1498,1.155,1.1606,1.1638,1.1659,1.1664,1.1671,1.1661,1.1643,1.1652,1.162,1.1663,1.1663,1.1663,1.1663,1.1663,1.1009,1.1039,1.109,1.1139,1.1177,1.1217,1.125,1.1287,1.1331,1.1389,1.1411,1.1464,1.1514,1.1591,1.1623,1.1665,1.1668,1.1678,1.1681,1.1683,1.1681,1.1636,1.1676,1.1676,1.1676,1.1676,1.1676,0,1.1038,1.1072,1.1117,1.1177,1.1215,1.123,1.1279,1.131,1.1356,1.1401,1.1443,1.1502,1.1552,1.16,1.1652,1.1676,1.1687,1.1689,1.1688,1.1694,1.1676,1.1664,1.1679,1.1679,1.1679,1.1679,1.1679,1.1679,1.1058,1.1109,1.1134,1.1203,1.1237,1.1289,1.1315,1.1352,1.1388,1.1452,1.1493,1.1524,1.1569,1.1625,1.1671,1.1684,1.1701,1.17,1.1715,1.1697,1.1696,1.1695,1.1685,1.1704,1.1704,1.1731,1.1731,1.1731]},{"header":{"parameterUnit":"m.s-1","parameterCategory":1,"la1":30.2991,"la2":30.254,"lo1":-89.0895,"lo2":-89.0444,"dy":0.0017,"dx":0.0017,"nx":28,"ny":28,"refTime":"2024-07-30T09:00:00:Z","depth":0,"parameterNumber":3,"parameterNumberName":"V-component_of_WINDS"},"data":[0,0,0,0,0,0,0,0,0,0,0,0,0,0,0,0,0,0,0,0,0,0,0,0,0,0,0,0,0,0,0,0,0,0,0,0,0,0,0,0,0,0,0,0,0,0,0,0,0,0,0,0,0,0,0,0,0,0,4.5376,4.5376,0,4.5324,4.5324,4.5323,4.5314,4.5315,4.5315,4.5316,4.5255,4.5253,4.5251,0,0,0,0,0,0,0,0,0,0,0,0,0,4.5461,4.546,4.5376,4.5376,4.5375,4.5324,4.5324,4.5323,4.5314,4.5315,4.5315,4.5316,4.5255,4.5253,4.525,0,0,0,0,0,0,0,0,0,0,0,0,0,4.5418,4.5459,4.5376,4.5365,4.5363,4.5324,4.5323,4.5323,4.5314,4.5315,4.5315,4.5316,4.5256,4.5253,4.525,4.5217,0,0,4.5241,4.5239,0,0,0,0,0,0,0,0,4.542,4.5415,4.5367,4.5366,4.5364,4.5327,4.5331,4.5287,4.5314,4.5332,4.5316,4.5316,4.5277,4.5273,4.5261,4.5214,4.5211,4.524,4.5238,4.5237,4.5236,0,0,0,0,0,0,0,4.5423,4.5417,4.5355,4.5366,4.5364,4.536,4.5354,4.5323,4.5301,4.5331,4.533,4.5325,4.5277,4.5264,4.526,4.521,4.524,4.5238,4.5236,4.5234,4.5131,4.5131,0,0,0,0,0,0,4.543,4.542,4.5357,4.5354,4.5395,4.5358,4.5352,4.5338,4.5302,4.5297,4.5324,4.5324,4.5269,4.5263,4.5257,4.5215,4.5237,4.5234,4.5232,4.5132,4.5131,4.513,0,0,0,0,0,0,4.5431,4.5424,4.5359,4.5387,4.5378,4.5356,4.534,4.5336,4.5324,4.5297,4.5292,4.5316,4.5269,4.5262,4.5227,4.5213,4.5233,4.523,4.5133,4.5132,4.5131,4.5131,0,0,0,0,0,0,4.5434,4.5425,4.5414,4.5386,4.5377,4.5332,4.5339,4.5335,4.5319,4.5319,4.5288,4.5283,4.5269,4.5232,4.5224,4.5209,4.5228,4.5134,4.5133,4.5131,4.5132,4.513,4.5128,0,0,0,0,0,4.5437,4.5414,4.5413,4.5406,4.5363,4.5331,4.5325,4.5313,4.5318,4.5306,4.5288,4.5284,4.5216,4.5228,4.5219,4.5203,4.5135,4.5133,4.5131,4.5133,4.513,4.5128,0,0,0,0,0,0,4.5438,4.5411,4.5409,4.5378,4.5357,4.533,4.5314,4.531,4.5286,4.5286,4.5269,4.5262,4.5228,4.5212,4.5226,4.5168,4.5176,4.5172,4.518,4.5177,4.5175,4.5179,4.5225,0,0,0,0,0,4.5435,4.5415,4.5391,4.5365,4.5355,4.5336,4.5322,4.5314,4.5291,4.5282,4.5262,4.5238,4.5211,4.5193,4.5167,4.513,4.5121,4.5114,4.5112,4.511,4.5107,4.5084,4.508,4.5124,4.5124,4.5124,0,0,4.5428,4.541,4.5398,4.5365,4.5348,4.5325,4.5329,4.5304,4.5286,4.5277,4.5244,4.5228,4.52,4.5164,4.5147,4.5149,4.5093,4.5108,4.5107,4.5104,4.5082,4.5078,4.5074,4.5122,4.5123,4.5123,0,0,4.5403,4.5388,4.5365,4.5349,4.5324,4.5312,4.5306,4.528,4.527,4.5236,4.5229,4.5206,4.516,4.514,4.5124,4.5091,4.5085,4.5082,4.5071,4.5049,4.5046,4.5042,4.5029,4.5025,4.5079,4.5079,4.5079,0,4.5396,4.5363,4.5353,4.5329,4.5313,4.5307,4.5282,4.5265,4.5232,4.5221,4.5225,4.5168,4.5148,4.5106,4.5099,4.5086,4.5077,4.5085,4.5047,4.5044,4.5041,4.5028,4.5023,4.5079,4.5079,4.5079,4.5079,0,4.5355,4.5332,4.5316,4.5287,4.527,4.5245,4.5229,4.5212,4.5206,4.5192,4.5157,4.5133,4.5102,4.5092,4.5084,4.5048,4.5051,4.5052,4.5058,4.5037,4.5024,4.5019,4.5079,4.5079,4.5079,4.5079,0,0,4.5328,4.5295,4.5289,4.5275,4.5248,4.5228,4.5202,4.5174,4.5159,4.5137,4.5113,4.5074,4.5075,4.5057,4.5046,4.5028,4.5001,4.503,4.5029,4.5024,4.4958,4.4957,4.4951,4.4998,4.4997,4.4996,4.496,0,4.5299,4.5255,4.5245,4.5206,4.5184,4.5178,4.5155,4.5134,4.512,4.5097,4.5081,4.5054,4.5057,4.5046,4.5027,4.5008,4.4987,4.5011,4.4972,4.4971,4.4979,4.4945,4.4943,4.491,4.4955,4.4954,4.4953,0,4.5259,4.5237,4.5197,4.5172,4.5162,4.5142,4.5115,4.5094,4.5069,4.506,4.504,4.5032,4.5002,4.5011,4.4968,4.4985,4.4968,4.4956,4.4955,4.4949,4.496,4.4937,4.49,4.4894,4.4946,4.4946,4.4947,0,4.5241,4.5203,4.5173,4.5162,4.5132,4.5118,4.5105,4.5081,4.5064,4.504,4.5028,4.4999,4.4983,4.4959,4.4943,4.4952,4.49,4.4909,4.489,4.489,4.4878,4.4879,4.4836,4.487,4.487,4.487,4.487,0,4.5209,4.5184,4.5165,4.5147,4.5118,4.5106,4.5077,4.5063,4.5042,4.5019,4.5011,4.4989,4.4969,4.4943,4.493,4.4895,4.4888,4.4878,4.4874,4.4878,4.4879,4.4866,4.4867,4.4869,4.4869,4.4869,4.487,0,4.5184,4.5171,4.5138,4.5114,4.5107,4.5087,4.5064,4.5044,4.5031,4.5002,4.4994,4.4972,4.4942,4.4923,4.4884,4.4874,4.4836,4.4833,4.4845,4.4843,4.4824,4.4826,4.477,4.4762,4.4803,4.4803,4.4802,0,4.5163,4.5144,4.5118,4.5104,4.5091,4.5067,4.505,4.5037,4.5019,4.499,4.4973,4.4943,4.4918,4.4869,4.4847,4.4817,4.4813,4.4796,4.4808,4.4812,4.481,4.4811,4.4808,4.4793,4.4792,4.4792,4.4792,0,4.5127,4.5122,4.51,4.5075,4.5057,4.5036,4.5015,4.5003,4.4985,4.4965,4.4936,4.4917,4.4877,4.4846,4.4814,4.4797,4.479,4.4789,4.4782,4.4785,4.4792,4.4786,4.4837,4.4789,4.479,4.479,4.479,4.479,4.5103,4.5085,4.5065,4.504,4.5023,4.5004,4.4985,4.497,4.4945,4.4914,4.4907,4.4875,4.4849,4.4805,4.4788,4.476,4.4763,4.4754,4.4751,4.4749,4.4748,4.4798,4.4754,4.4754,4.4754,4.4754,4.4755,0,4.5065,4.5052,4.5029,4.5002,4.4982,4.4981,4.4957,4.494,4.4913,4.4891,4.4867,4.4831,4.4801,4.4778,4.4746,4.4728,4.4725,4.472,4.4721,4.4716,4.4748,4.4756,4.4724,4.4724,4.4724,4.4724,4.4724,4.4724,4.5043,4.5014,4.5006,4.4966,4.4952,4.4923,4.491,4.4891,4.4873,4.4835,4.4811,4.4797,4.4773,4.474,4.4711,4.4705,4.4692,4.4688,4.4681,4.4711,4.4714,4.4717,4.4725,4.4686,4.4686,4.4651,4.4651,4.4651]}]]